Temp
-15 -15 -15 -15 -15 -15 -15 -15 -15 -15 -15 -15 -15 -15 -15 -15 -15 -15 -15 -15 -16 -16 -16 -15 -15 -16 -16 -16 -16 -15 -15 -15 -15 -14 -14 -13 -13 -13 -13 -13 -13 -13 -12 -12
-15 -15 -15 -15 -15 -15 -15 -15 -15 -15 -15 -15 -15 -15 -15 -15 -15 -15 -15 -15 -15 -15 -15 -16 -15 -15 -15 -15 -15 -15 -15 -14 -14 -14 -14 -14 -13 -13 -14 -13 -13 -13 -13 -12
-15 -15 -15 -15 -15 -15 -16 -16 -15 -15 -15 -16 -16 -15 -15 -15 -15 -15 -15 -15 -15 -15 -15 -15 -15 -15 -15 -15 -15 -15 -15 -15 -14 -14 -14 -14 -14 -14 -14 -14 -13 -13 -13 -13
-15 -16 -15 -15 -15 -15 -15 -15 -15 -15 -15 -15 -15 -15 -16 -15 -15 -15 -15 -15 -15 -15 -15 -15 -15 -15 -15 -15 -15 -15 -15 -15 -15 -15 -15 -14 -14 -14 -14 -14 -14 -13 -13 -13
-15 -15 -16 -16 -16 -16 -16 -15 -15 -15 -16 -16 -16 -15 -15 -15 -15 -15 -15 -15 -15 -15 -15 -15 -15 -15 -15 -15 -15 -15 -15 -14 -14 -14 -14 -14 -13 -13 -13 -13 -13 -13 -13 -13
-16 -16 -16 -16 -16 -16 -16 -16 -16 -15 -15 -15 -16 -16 -16 -16 -16 -16 -16 -16 -16 -15 -15 -15 -15 -15 -15 -15 -15 -15 -15 -15 -15 -14 -14 -14 -13 -14 -14 -14 -14 -14 -13 -13
-16 -16 -16 -16 -16 -16 -16 -16 -16 -16 -16 -16 -16 -16 -16 -16 -16 -16 -16 -16 -16 -16 -16 -15 -15 -15 -15 -15 -15 -15 -15 -16 -16 -15 -15 -14 -14 -13 -13 -13 -13 -13 -13 -13
-16 -16 -16 -16 -16 -16 -16 -16 -16 -16 -15 -16 -16 -16 -16 -16 -16 -16 -16 -16 -16 -16 -16 -16 -16 -16 -15 -15 -15 -16 -16 -16 -16 -15 -15 -13 -14 -14 -14 -14 -13 -14 -14 -14
-17 -17 -17 -17 -17 -17 -17 -17 -17 -16 -16 -16 -16 -16 -16 -16 -16 -16 -16 -16 -16 -16 -16 -16 -16 -16 -16 -16 -16 -16 -16 -17 -17 -16 -16 -14 -13 -13 -14 -14 -14 -15 -15 -15
-17 -18 -18 -18 -18 -18 -18 -18 -18 -17 -17 -17 -17 -17 -17 -17 -17 -16 -17 -17 -17 -17 -17 -17 -16 -16 -17 -16 -16 -16 -17 -17 -17 -17 -16 -14 -15 -15 -15 -15 -16 -16 -16 -16
-19 -18 -18 -18 -18 -18 -18 -18 -19 -19 -18 -17 -18 -18 -18 -17 -17 -17 -17 -18 -17 -18 -17 -17 -17 -17 -17 -17 -17 -17 -17 -17 -17 -17 -17 -16 -16 -17 -17 -17 -17 -17 -17 -17
-20 -19 -19 -19 -19 -18 -19 -19 -19 -19 -19 -18 -18 -19 -19 -19 -19 -19 -18 -18 -18 -18 -18 -18 -18 -18 -17 -17 -16 -17 -17 -18 -18 -18 -18 -18 -17 -17 -18 -18 -18 -18 -18 -19
-21 -21 -21 -20 -20 -20 -19 -19 -19 -19 -18 -18 -18 -18 -19 -18 -18 -18 -18 -18 -18 -18 -18 -18 -18 -18 -17 -17 -17 -17 -18 -18 -18 -19 -18 -19 -19 -19 -19 -19 -19 -20 -20 -20
-23 -23 -22 -22 -21 -21 -21 -21 -20 -20 -19 -19 -19 -19 -19 -18 -18 -18 -18 -18 -18 -18 -18 -19 -19 -18 -18 -18 -18 -19 -19 -19 -19 -20 -20 -21 -20 -20 -20 -21 -21 -21 -22 -22
-26 -25 -25 -24 -23 -23 -22 -22 -22 -22 -21 -20 -20 -20 -20 -20 -20 -20 -19 -19 -19 -19 -19 -20 -20 -20 -20 -20 -20 -20 -20 -21 -21 -21 -21 -22 -22 -22 -22 -22 -22 -22 -22 -22
-29 -28 -28 -27 -26 -25 -25 -24 -23 -23 -23 -22 -22 -22 -22 -22 -21 -21 -21 -21 -21 -21 -21 -22 -22 -22 -22 -22 -22 -22 -22 -22 -22 -22 -22 -23 -23 -22 -22 -22 -22 -23 -23 -23
-31 -30 -29 -28 -28 -28 -27 -26 -26 -25 -24 -24 -23 -23 -23 -23 -23 -22 -22 -22 -22 -22 -22 -23 -23 -23 -23 -23 -23 -23 -23 -23 -23 -23 -23 -23 -23 -23 -23 -23 -24 -24 -25 -25
-32 -31 -31 -30 -30 -29 -28 -28 -27 -27 -27 -26 -25 -25 -24 -24 -24 -23 -23 -23 -23 -23 -23 -23 -23 -24 -24 -25 -24 -24 -24 -24 -24 -25 -24 -24 -24 -25 -25 -26 -26 -27 -27 -28
-33 -33 -32 -32 -31 -30 -30 -29 -28 -28 -28 -27 -27 -27 -26 -26 -26 -25 -25 -25 -25 -24 -24 -24 -24 -25 -25 -25 -25 -25 -25 -26 -26 -26 -26 -26 -27 -27 -27 -28 -28 -28 -28 -29
-34 -34 -33 -32 -32 -32 -32 -31 -31 -30 -29 -29 -28 -28 -28 -27 -27 -27 -27 -26 -26 -26 -26 -26 -26 -26 -26 -27 -28 -28 -28 -29 -28 -28 -28 -28 -28 -29 -29 -29 -30 -30 -30 -30
-34 -34 -34 -33 -33 -33 -32 -32 -32 -32 -31 -31 -31 -30 -30 -30 -29 -28 -28 -28 -28 -28 -28 -28 -28 -28 -28 -29 -29 -29 -29 -30 -30 -30 -30 -30 -30 -31 -31 -31 -31 -31 -31 -31
-35 -34 -34 -34 -33 -33 -32 -32 -32 -32 -32 -32 -32 -31 -31 -32 -31 -32 -32 -31 -31 -31 -31 -31 -31 -31 -31 -31 -31 -31 -31 -31 -31 -31 -31 -31 -31 -31 -31 -31 -31 -31 -31 -32
-35 -35 -34 -34 -34 -33 -33 -33 -33 -33 -33 -33 -32 -32 -32 -32 -32 -32 -32 -32 -32 -32 -32 -32 -32 -32 -32 -32 -32 -32 -32 -32 -32 -32 -32 -32 -32 -32 -32 -32 -32 -32 -32 -32
-36 -36 -35 -35 -34 -34 -34 -34 -34 -34 -33 -33 -33 -33 -33 -32 -32 -33 -33 -33 -33 -33 -33 -33 -33 -33 -33 -33 -33 -33 -33 -33 -33 -33 -33 -33 -32 -32 -33 -33 -33 -33 -33 -33
-37 -36 -35 -35 -35 -35 -35 -34 -34 -34 -34 -33 -33 -33 -33 -33 -33 -33 -33 -33 -33 -33 -34 -34 -33 -33 -33 -33 -33 -33 -33 -33 -33 -33 -33 -33 -33 -33 -33 -33 -33 -33 -33 -34
-36 -36 -36 -36 -35 -35 -35 -35 -35 -35 -34 -34 -34 -34 -34 -34 -34 -34 -34 -34 -34 -34 -34 -34 -34 -34 -34 -34 -34 -34 -34 -34 -34 -34 -34 -33 -33 -33 -33 -33 -33 -33 -33 -33
-36 -36 -36 -36 -36 -35 -35 -35 -35 -35 -35 -35 -34 -34 -34 -34 -34 -34 -34 -35 -35 -35 -35 -35 -35 -35 -35 -35 -35 -35 -34 -34 -34 -33 -33 -33 -33 -33 -33 -33 -33 -33 -33 -33
Height
5738 5738 5737 5736 5735 5735 5734 5732 5732 5731 5730 5729 5728 5728 5726 5726 5724 5722 5720 5719 5717 5715 5714 5714 5716 5717 5718 5720 5722 5723 5725 5727 5729 5731 5732 5734 5735 5736 5736 5734 5735 5732 5731 5734
5731 5730 5731 5731 5730 5729 5728 5728 5728 5726 5726 5727 5725 5725 5725 5725 5724 5723 5722 5721 5720 5719 5719 5719 5718 5718 5719 5720 5720 5721 5723 5725 5726 5727 5729 5728 5729 5729 5728 5726 5725 5726 5724 5727
5720 5721 5721 5722 5723 5723 5723 5722 5722 5722 5722 5721 5721 5721 5721 5721 5721 5721 5721 5720 5720 5719 5718 5718 5718 5718 5719 5720 5720 5721 5721 5722 5722 5723 5722 5722 5722 5721 5720 5718 5717 5717 5715 5719
5707 5709 5711 5712 5712 5713 5715 5715 5715 5716 5715 5715 5715 5715 5716 5715 5715 5717 5718 5719 5718 5718 5717 5717 5716 5716 5716 5716 5716 5716 5716 5717 5717 5716 5714 5713 5712 5713 5713 5710 5709 5702 5709 5704
5692 5695 5697 5699 5701 5702 5704 5704 5706 5706 5706 5707 5707 5708 5709 5709 5709 5709 5709 5710 5711 5712 5712 5713 5713 5712 5712 5712 5711 5710 5709 5709 5707 5708 5705 5702 5699 5705 5705 5700 5699 5693 5694 5693
5676 5678 5681 5684 5686 5689 5689 5690 5691 5692 5695 5696 5697 5697 5699 5700 5699 5701 5701 5701 5701 5701 5701 5702 5703 5702 5702 5702 5703 5701 5701 5700 5697 5695 5696 5690 5685 5696 5693 5689 5687 5684 5680 5680
5659 5661 5664 5666 5670 5672 5674 5676 5677 5678 5679 5682 5684 5685 5686 5686 5687 5689 5691 5691 5691 5691 5690 5689 5690 5690 5691 5691 5692 5690 5689 5688 5683 5677 5679 5675 5678 5676 5675 5675 5673 5670 5667 5665
5641 5644 5646 5649 5651 5654 5656 5657 5660 5661 5662 5666 5668 5670 5671 5673 5673 5675 5676 5677 5677 5677 5677 5676 5675 5676 5675 5678 5677 5677 5676 5673 5669 5663 5661 5660 5660 5659 5658 5658 5658 5655 5652 5650
5622 5624 5627 5630 5633 5635 5638 5639 5641 5643 5644 5649 5652 5654 5654 5656 5658 5660 5661 5662 5663 5663 5661 5661 5657 5658 5661 5659 5659 5663 5662 5659 5657 5652 5648 5644 5643 5640 5641 5640 5638 5637 5634 5632
5599 5603 5606 5609 5612 5614 5618 5621 5623 5624 5625 5629 5634 5635 5638 5640 5642 5642 5645 5646 5646 5645 5645 5645 5644 5643 5643 5640 5639 5640 5640 5639 5636 5633 5631 5630 5629 5627 5623 5622 5624 5617 5615 5612
5579 5581 5584 5587 5589 5592 5595 5597 5601 5604 5606 5609 5613 5617 5620 5622 5624 5625 5627 5629 5627 5628 5629 5628 5627 5625 5625 5624 5625 5624 5622 5619 5618 5616 5613 5613 5613 5611 5609 5606 5603 5600 5596 5592
5557 5559 5562 5564 5567 5570 5572 5577 5579 5581 5586 5589 5594 5597 5598 5600 5602 5605 5607 5608 5608 5608 5610 5611 5610 5609 5606 5605 5606 5606 5605 5603 5602 5600 5598 5597 5595 5591 5588 5586 5583 5580 5578 5575
5534 5537 5540 5542 5545 5548 5551 5554 5557 5559 5563 5569 5572 5573 5575 5578 5580 5583 5587 5588 5589 5589 5589 5589 5588 5588 5589 5589 5589 5587 5586 5584 5584 5582 5582 5579 5576 5574 5571 5568 5565 5561 5557 5554
5508 5511 5515 5519 5522 5526 5529 5532 5536 5539 5542 5547 5552 5551 5553 5558 5561 5563 5566 5569 5570 5570 5571 5569 5569 5570 5570 5571 5569 5569 5568 5567 5565 5563 5561 5559 5557 5555 5553 5551 5548 5545 5541 5538
5484 5487 5491 5495 5499 5503 5508 5512 5515 5518 5523 5528 5530 5531 5534 5538 5542 5545 5547 5549 5549 5550 5551 5551 5551 5551 5551 5549 5548 5550 5549 5548 5547 5545 5544 5542 5542 5540 5537 5535 5531 5528 5524 5521
5465 5467 5471 5473 5478 5482 5486 5491 5495 5498 5501 5507 5512 5513 5515 5519 5523 5526 5530 5532 5533 5534 5534 5534 5534 5533 5534 5532 5532 5533 5531 5531 5529 5527 5524 5523 5522 5520 5518 5516 5514 5510 5506 5501
5449 5452 5455 5457 5459 5463 5468 5473 5477 5478 5482 5486 5490 5494 5498 5501 5504 5508 5512 5515 5518 5518 5518 5518 5519 5520 5518 5513 5514 5517 5515 5513 5510 5507 5506 5506 5504 5502 5499 5497 5494 5489 5485 5481
5439 5440 5441 5443 5445 5448 5453 5454 5459 5462 5466 5469 5472 5477 5482 5482 5486 5489 5491 5495 5498 5500 5502 5503 5503 5503 5499 5495 5497 5497 5496 5495 5493 5491 5489 5487 5485 5483 5480 5477 5475 5472 5467 5462
5428 5430 5431 5432 5434 5436 5437 5441 5444 5446 5451 5452 5458 5461 5465 5466 5469 5472 5475 5477 5480 5482 5485 5487 5487 5484 5482 5480 5480 5480 5479 5478 5475 5474 5472 5469 5467 5465 5462 5460 5457 5453 5449 5445
5421 5422 5423 5423 5424 5425 5428 5429 5431 5432 5434 5438 5441 5445 5449 5453 5455 5457 5461 5462 5464 5466 5469 5468 5468 5467 5468 5469 5468 5467 5466 5463 5460 5458 5456 5454 5452 5450 5446 5442 5438 5434 5430 5426
5413 5414 5415 5416 5416 5417 5419 5421 5423 5424 5424 5428 5430 5431 5433 5435 5439 5442 5443 5445 5447 5450 5453 5456 5452 5451 5451 5452 5451 5450 5449 5447 5444 5443 5442 5440 5438 5435 5432 5429 5423 5417 5412 5408
5406 5408 5409 5411 5411 5412 5414 5414 5416 5417 5418 5421 5422 5424 5427 5428 5429 5430 5431 5434 5435 5438 5440 5441 5440 5441 5441 5440 5439 5438 5437 5435 5432 5431 5429 5427 5423 5419 5415 5411 5407 5402 5398 5393
5401 5402 5404 5405 5406 5407 5408 5409 5409 5411 5412 5414 5416 5418 5419 5420 5423 5424 5426 5427 5429 5429 5429 5429 5430 5430 5429 5428 5428 5427 5425 5424 5421 5418 5415 5412 5409 5405 5400 5397 5392 5387 5383 5377
5397 5398 5399 5400 5401 5402 5403 5404 5405 5406 5407 5409 5410 5412 5414 5414 5416 5417 5418 5419 5420 5420 5420 5420 5420 5420 5419 5418 5416 5415 5414 5412 5409 5407 5404 5401 5397 5393 5388 5382 5377 5373 5368 5363
5393 5394 5395 5396 5397 5398 5399 5400 5401 5402 5403 5404 5406 5407 5409 5409 5411 5411 5412 5412 5412 5413 5412 5411 5410 5410 5410 5408 5406 5404 5403 5401 5398 5395 5391 5387 5383 5380 5376 5371 5366 5361 5356 5351
5391 5392 5392 5393 5394 5395 5396 5396 5397 5398 5400 5401 5402 5403 5404 5405 5406 5407 5407 5407 5407 5406 5405 5405 5404 5402 5401 5399 5397 5395 5392 5389 5386 5383 5380 5377 5374 5371 5368 5363 5357 5352 5347 5342
5390 5391 5391 5392 5393 5393 5394 5395 5396 5397 5398 5399 5400 5401 5402 5402 5403 5403 5403 5403 5403 5402 5400 5398 5397 5396 5394 5391 5389 5386 5384 5381 5378 5375 5371 5368 5365 5362 5359 5355 5350 5346 5341 5337
Wind_Speed
31 29 27 25 24 22 21 16 12 11 7 6 8 9 9 10 11 10 11 11 12 11 11 10 8 7 6 6 8 9 11 12 14 17 18 21 24 26 31 36 37 37 36 34
38 36 34 33 32 30 28 26 22 19 17 14 11 10 10 9 8 8 9 8 7 5 5 4 4 4 2 0 2 5 7 11 14 17 21 25 27 31 34 36 37 35 37 33
45 43 41 39 38 37 36 33 31 28 26 23 21 18 15 14 13 12 10 9 10 9 8 7 6 5 5 7 9 11 12 15 18 20 24 27 29 32 33 36 37 37 38 35
52 50 48 46 43 42 41 42 39 36 34 32 30 27 25 22 20 19 18 16 14 14 14 14 15 15 16 16 17 19 20 20 24 26 29 32 34 34 36 39 40 46 41 44
58 57 54 52 50 48 46 46 46 45 42 39 37 36 31 31 30 26 25 24 24 23 23 22 22 23 24 24 26 28 29 30 32 31 35 40 43 38 39 43 45 48 47 48
64 62 60 59 57 54 53 51 51 50 49 47 45 42 41 39 37 35 34 33 31 31 32 32 31 32 33 33 32 35 36 37 40 42 40 46 50 41 43 47 49 50 52 50
67 67 66 64 63 61 59 58 57 56 55 53 52 50 48 47 46 44 41 41 40 39 40 41 40 41 41 40 40 43 44 44 48 52 50 52 50 51 50 49 49 50 51 52
71 70 70 69 68 68 67 65 64 63 62 60 58 57 56 54 53 51 50 48 48 48 48 49 49 49 50 48 49 48 48 50 53 57 58 57 56 55 54 52 51 51 51 51
71 75 75 73 72 71 72 71 71 70 69 66 64 63 63 61 60 59 57 55 54 55 56 57 59 58 57 58 58 55 54 57 58 60 60 60 59 59 56 54 56 54 54 56
78 74 73 76 79 77 75 74 74 74 75 73 69 68 68 68 66 66 63 61 61 62 62 62 64 65 64 65 65 65 64 63 62 61 60 61 59 58 58 60 58 59 60 62
74 75 78 78 77 78 80 81 80 80 80 77 74 73 70 70 70 70 69 69 69 68 68 68 69 71 71 70 68 66 65 64 60 59 59 61 60 61 61 62 64 66 67 68
74 74 76 76 78 80 80 80 79 79 80 82 81 79 78 79 78 77 77 79 79 78 76 75 74 74 71 68 66 63 61 60 61 62 62 63 64 65 65 64 64 66 66 67
72 70 72 72 73 76 78 77 75 75 76 76 77 77 76 77 76 74 74 71 71 70 69 67 67 66 65 65 65 65 65 65 64 62 63 61 62 62 64 65 65 64 64 64
76 73 72 70 69 69 68 70 73 75 75 74 72 69 69 70 69 68 67 66 65 63 63 62 63 65 67 66 66 65 65 64 62 61 60 58 60 60 60 60 62 64 67 68
69 73 73 71 69 68 68 66 65 65 66 69 68 68 67 66 65 65 64 62 61 61 60 60 60 60 59 61 60 59 58 58 57 57 59 60 61 61 63 64 66 68 70 72
56 62 67 68 68 66 65 63 64 62 62 60 58 57 57 56 56 56 55 52 51 50 46 46 47 49 51 54 55 57 60 60 60 61 61 62 63 64 66 67 69 70 71 73
41 45 49 54 56 56 58 61 59 58 59 59 57 56 54 53 52 52 52 52 51 52 52 52 53 53 53 55 57 57 58 59 62 65 65 65 65 66 67 68 69 70 71 72
34 34 36 37 38 44 43 49 54 54 54 54 54 53 52 52 52 52 53 53 53 54 54 53 52 52 53 55 56 56 59 59 60 61 64 66 66 66 66 65 65 65 66 66
29 30 32 33 33 33 31 35 39 44 48 49 51 51 50 50 50 50 51 51 50 51 51 52 52 51 52 54 54 55 56 56 56 58 61 63 64 65 64 63 63 63 62 62
26 26 24 27 30 30 28 27 27 32 38 39 42 44 46 46 47 46 45 46 46 46 47 47 48 50 51 48 49 51 51 53 56 59 62 62 60 58 58 58 60 62 64 65
23 24 22 19 19 22 25 26 24 25 26 26 29 32 34 36 39 42 44 45 46 46 46 46 46 48 48 47 47 46 48 48 50 51 51 52 53 54 55 59 63 62 61 62
20 20 19 18 18 17 16 18 20 22 23 22 22 24 26 26 25 25 27 29 31 32 32 32 35 36 38 40 41 41 41 42 46 49 50 52 55 54 54 55 56 57 56 55
16 16 17 17 17 16 15 16 16 19 20 19 20 19 20 21 22 24 25 26 26 27 28 30 32 33 35 37 39 39 40 42 43 45 47 48 48 49 49 49 51 52 53 54
13 13 13 14 14 15 14 15 15 15 16 16 17 18 20 20 20 21 22 23 24 25 26 28 29 28 30 31 32 33 34 36 36 38 40 41 43 44 45 45 44 44 43 43
10 11 11 11 11 11 12 13 13 14 16 17 18 18 18 18 18 17 17 16 18 18 19 21 23 25 25 26 27 30 32 34 35 36 36 36 35 34 33 35 37 39 41 41
6 7 7 8 8 9 11 12 13 13 13 13 13 13 12 12 11 10 10 11 13 16 18 19 20 23 25 27 29 30 31 32 32 31 30 28 28 28 28 31 33 32 30 28
2 2 3 4 6 6 7 6 6 7 8 8 8 8 8 8 7 7 9 10 12 14 17 20 22 23 25 26 27 27 28 27 27 26 26 26 26 25 24 21 21 21 20 18
Wind_Direction
255 258 261 263 267 272 277 276 277 288 290 309 329 339 358 3 14 27 44 49 58 66 71 76 95 125 143 158 175 190 199 208 217 231 240 247 251 255 255 257 263 266 273 275
254 255 257 261 266 267 269 274 276 274 279 279 275 287 300 310 320 337 343 355 6 31 52 89 108 98 79 121 230 241 247 250 246 245 249 252 254 256 259 262 264 269 271 282
252 254 254 257 261 265 269 268 270 273 275 274 275 276 275 276 287 285 291 296 304 308 307 305 295 283 256 237 236 240 244 249 251 254 255 256 258 260 263 267 273 278 273 283
254 254 255 255 256 259 263 269 271 270 270 273 273 275 278 275 277 278 279 278 272 271 272 276 278 278 277 275 274 274 271 267 266 267 267 264 263 264 267 270 273 272 276 270
254 255 256 256 257 257 259 261 267 270 270 270 271 275 272 275 276 274 273 275 277 276 271 268 266 266 268 270 272 272 273 273 272 267 271 272 269 272 274 272 272 272 275 275
253 254 255 256 256 256 258 259 261 263 268 270 272 271 273 272 271 272 274 274 273 273 275 275 274 273 273 273 272 273 275 277 276 271 270 269 270 271 269 273 275 276 278 280
253 253 254 255 256 257 257 259 260 262 263 265 267 268 270 271 273 273 272 272 273 272 272 274 274 274 275 276 277 279 281 282 281 282 278 272 276 278 278 276 277 278 279 278
252 253 255 254 255 256 258 257 258 260 262 263 264 266 266 266 267 269 271 273 274 274 273 273 274 275 276 277 277 280 281 281 283 282 283 281 284 285 285 283 282 281 280 279
257 256 252 253 254 254 255 257 257 258 259 259 260 262 265 265 267 269 269 269 270 271 273 275 277 277 277 278 278 278 278 278 279 278 279 279 283 283 285 284 283 285 283 279
249 251 256 257 253 253 254 255 257 257 258 259 259 260 262 264 266 267 268 269 270 270 271 272 273 275 277 280 282 284 285 283 281 281 282 280 281 284 284 283 285 281 281 281
254 255 255 252 253 255 258 255 253 255 257 259 260 261 261 262 264 266 267 267 267 268 269 270 272 274 276 277 278 279 280 281 283 281 280 281 282 282 282 282 283 283 283 283
256 256 254 255 256 256 255 257 258 259 260 261 261 261 263 262 261 263 265 267 269 269 269 270 272 273 274 275 276 277 278 278 279 279 281 282 283 283 283 282 282 281 281 282
258 259 259 259 258 257 256 257 257 257 258 258 260 261 262 263 265 265 266 268 270 269 271 272 271 271 270 271 273 274 275 276 276 277 278 279 278 278 278 280 281 282 283 284
256 255 256 256 257 258 259 259 259 258 258 257 258 259 260 261 262 264 265 265 266 267 268 268 269 270 272 272 272 271 273 274 276 276 277 277 277 278 280 281 281 282 282 282
255 258 256 255 254 255 257 258 259 259 259 260 259 259 260 261 261 262 263 263 264 264 264 265 266 267 268 268 269 270 271 271 272 274 274 275 275 275 275 276 277 278 280 281
257 254 252 259 259 256 254 254 256 257 258 259 258 259 261 261 259 258 258 258 259 260 260 259 260 262 263 266 268 268 271 273 273 273 273 274 275 276 277 278 280 281 282 283
267 263 263 264 253 259 260 258 257 256 258 258 258 257 258 258 257 258 257 256 256 257 257 259 262 265 266 266 267 269 270 270 271 272 273 275 277 278 279 281 281 282 283 284
268 267 267 268 271 263 260 260 260 261 260 258 257 257 256 256 255 255 255 254 254 255 257 259 260 260 260 261 264 265 266 267 270 272 275 277 278 280 281 281 282 283 284 284
268 270 265 262 266 266 261 252 249 250 253 255 260 259 258 258 258 259 259 258 257 257 258 258 259 260 263 266 269 272 274 276 277 276 277 278 279 280 281 282 282 282 283 285
267 272 274 269 263 261 263 261 260 249 245 243 245 249 251 255 257 257 258 259 259 260 260 261 261 262 262 261 261 264 264 263 265 266 270 275 279 282 283 282 286 287 287 286
267 267 269 276 273 264 260 258 258 257 258 263 258 253 250 248 250 252 253 255 255 256 257 258 261 263 264 266 267 268 270 272 273 274 276 278 279 279 275 278 283 285 285 287
265 265 266 268 268 265 264 261 259 256 257 260 256 255 259 260 259 259 261 260 261 262 263 261 260 261 263 266 266 266 264 258 263 270 269 270 279 282 282 284 284 286 288 289
265 267 266 267 266 269 269 264 261 258 258 256 256 255 250 250 251 255 257 260 260 261 260 260 262 266 266 267 269 273 274 274 275 277 280 282 284 285 286 287 288 288 289 291
268 265 264 263 265 263 262 262 258 253 250 251 251 255 258 261 261 261 261 262 263 263 263 264 269 272 271 272 273 274 276 277 278 279 282 285 286 287 288 291 293 294 296 296
267 263 260 260 257 257 257 255 252 247 246 249 252 257 263 269 270 270 270 270 272 274 273 271 270 274 278 279 280 282 284 286 288 290 290 291 293 296 298 299 300 299 299 300
283 268 253 246 243 245 245 244 244 249 258 264 266 270 275 278 278 278 273 265 262 266 273 280 281 283 286 289 291 294 296 296 296 298 298 298 297 296 299 302 302 305 308 310
282 245 240 240 246 252 253 251 248 245 250 255 262 269 271 273 272 267 269 278 285 286 285 285 287 288 290 293 296 296 297 299 303 305 305 301 301 302 307 313 321 325 330 334